,,,PA_Meas_PMT16A,,PR_Meas_QMR101_102,,RH_Meas_QMH101,,SR_Meas_QMS101,,TA_Meas_QMH101,,GenWind,,GenWind,
date,time,status,PA,status,PR,status,RH,status,SR,status,TA,status,DirAvg,status,SpdAvg,
2012-07-26, 09:37:04,VALID,1005.06,VALID,0,VALID,93.5606,VALID,120.063,VALID,23.4311,VALID,70,VALID,0.660156,
2012-07-26, 09:38:04,VALID,1005.05,VALID,0,VALID,93.7513,VALID,125.605,VALID,23.5071,VALID,70,VALID,0.428516,
2012-07-26, 09:39:04,VALID,1005.04,VALID,0,VALID,93.8276,VALID,130.985,VALID,23.6062,VALID,77,VALID,0.237891,
2012-07-26, 09:40:04,VALID,1005.05,VALID,0,VALID,93.7513,VALID,136.038,VALID,23.6257,VALID,77,VALID,0.389844,
2012-07-26, 09:41:04,VALID,1005.03,VALID,0,VALID,93.5682,VALID,140.766,VALID,23.6239,VALID,79,VALID,0.912109,
2012-07-26, 09:42:04,VALID,1005.01,VALID,0,VALID,93.2631,VALID,145.086,VALID,23.6239,VALID,90,VALID,0.45,
2012-07-26, 09:43:04,VALID,1005,VALID,0,VALID,93.4538,VALID,149.08,VALID,23.723,VALID,87,VALID,0.655469,
2012-07-26, 09:44:04,VALID,1004.98,VALID,0,VALID,92.8435,VALID,153.074,VALID,23.7017,VALID,102,VALID,0.911719,
2012-07-26, 09:45:04,VALID,1004.93,VALID,0,VALID,92.3247,VALID,156.742,VALID,23.7017,VALID,104,VALID,0.957422,
2012-07-26, 09:46:04,VALID,1004.92,VALID,0,VALID,92.0196,VALID,160.084,VALID,23.7601,VALID,98,VALID,0.553125,
2012-07-26, 09:47:04,VALID,1004.88,VALID,0,VALID,92.0043,VALID,163.507,VALID,23.7991,VALID,99,VALID,0.461328,
2012-07-26, 09:48:04,VALID,1004.86,VALID,0,VALID,91.6915,VALID,166.849,VALID,23.8203,VALID,111,VALID,0.615234,
2012-07-26, 09:49:04,VALID,1004.86,VALID,0,VALID,90.9286,VALID,170.354,VALID,23.8185,VALID,109,VALID,0.976172,
2012-07-26, 09:50:04,VALID,1004.79,VALID,0,VALID,90.8905,VALID,174.185,VALID,23.9371,VALID,97,VALID,0.635156,
2012-07-26, 09:51:04,VALID,1004.8,VALID,0.5,VALID,90.3107,VALID,178.586,VALID,23.9742,VALID,103,VALID,0.495703,
2012-07-26, 09:52:04,VALID,1004.76,VALID,0,VALID,90.4709,VALID,183.64,VALID,24.0734,VALID,103,VALID,0.591797,
2012-07-26, 09:53:04,VALID,1004.76,VALID,0,VALID,90.2878,VALID,189.101,VALID,24.091,VALID,101,VALID,0.348828,
2012-07-26, 09:54:04,VALID,1004.77,VALID,0,VALID,90.1734,VALID,194.888,VALID,24.1494,VALID,85,VALID,0.328906,
2012-07-26, 09:55:04,VALID,1004.72,VALID,0,VALID,89.3113,VALID,201.246,VALID,24.1689,VALID,65,VALID,0.325,
2012-07-26, 09:56:04,VALID,1004.75,VALID,0,VALID,87.0913,VALID,207.929,VALID,24.1689,VALID,97,VALID,1.18281,
2012-07-26, 09:57:04,VALID,1004.74,VALID,0,VALID,88.1059,VALID,214.694,VALID,24.2875,VALID,107,VALID,0.48125,
2012-07-26, 09:58:04,VALID,1004.73,VALID,0,VALID,88.8688,VALID,221.786,VALID,24.3636,VALID,107,VALID,0.329297,
2012-07-26, 09:59:04,VALID,1004.69,VALID,0,VALID,87.7321,VALID,229.285,VALID,24.4238,VALID,94,VALID,0.652344,
2012-07-26, 10:00:04,VALID,1004.71,VALID,0,VALID,85.6647,VALID,237.272,VALID,24.4238,VALID,86,VALID,0.780469,
2012-07-26, 10:01:04,VALID,1004.65,VALID,0,VALID,87.1142,VALID,245.912,VALID,24.5212,VALID,91,VALID,0.1875,
2012-07-26, 10:02:04,VALID,1004.61,VALID,0,VALID,86.9998,VALID,255.286,VALID,24.6185,VALID,91,VALID,0.280469,
2012-07-26, 10:03:04,VALID,1004.6,VALID,0,VALID,86.6946,VALID,264.089,VALID,24.6574,VALID,91,VALID,0.416016,
2012-07-26, 10:04:04,VALID,1004.58,VALID,0,VALID,86.8167,VALID,271.914,VALID,24.675,VALID,91,VALID,0,
2012-07-26, 10:05:04,VALID,1004.52,VALID,0,VALID,86.3055,VALID,279.087,VALID,24.7548,VALID,94,VALID,0,
2012-07-26, 10:06:04,VALID,1004.51,VALID,0,VALID,83.1243,VALID,286.341,VALID,24.7937,VALID,240,VALID,0.682031,
2012-07-26, 10:07:04,VALID,1004.51,VALID,0,VALID,79.8439,VALID,294.084,VALID,24.8503,VALID,189,VALID,0.744141,
2012-07-26, 10:08:04,VALID,1004.51,VALID,0,VALID,79.1649,VALID,300.442,VALID,24.9671,VALID,213,VALID,0.475781,
2012-07-26, 10:09:04,VALID,1004.49,VALID,0,VALID,79.5692,VALID,307.452,VALID,25.0839,VALID,175,VALID,0.64375,
2012-07-26, 10:10:04,VALID,1004.48,VALID,0,VALID,79.3098,VALID,314.054,VALID,25.2202,VALID,145,VALID,0.775,
2012-07-26, 10:11:04,VALID,1004.48,VALID,0,VALID,81.5985,VALID,324.405,VALID,25.2981,VALID,145,VALID,0.489062,
2012-07-26, 10:12:04,VALID,1004.48,VALID,0,VALID,80.9272,VALID,338.017,VALID,25.3935,VALID,149,VALID,0.205469,
2012-07-26, 10:13:04,VALID,1004.48,VALID,0,VALID,80.149,VALID,348.777,VALID,25.4539,VALID,150,VALID,0.367188,
2012-07-26, 10:14:04,VALID,1004.45,VALID,0,VALID,76.6321,VALID,367.116,VALID,25.5123,VALID,167,VALID,0.5,
2012-07-26, 10:15:04,VALID,1004.46,VALID,0,VALID,76.4872,VALID,389.45,VALID,25.5902,VALID,212,VALID,0.335156,
2012-07-26, 10:16:04,VALID,1004.44,VALID,0,VALID,76.4719,VALID,409.256,VALID,25.7265,VALID,209,VALID,0.313281,
2012-07-26, 10:17:04,VALID,1004.44,VALID,0,VALID,73.1304,VALID,427.351,VALID,25.8434,VALID,184,VALID,0.886719,
2012-07-26, 10:18:04,VALID,1004.43,VALID,0,VALID,73.3975,VALID,448.136,VALID,25.9817,VALID,213,VALID,0.788281,
2012-07-26, 10:19:04,VALID,1004.41,VALID,0,VALID,72.1158,VALID,455.553,VALID,26.118,VALID,208,VALID,0.607422,
2012-07-26, 10:20:04,VALID,1004.4,VALID,0,VALID,69.9034,VALID,463.46,VALID,26.2134,VALID,204,VALID,0.958984,
2012-07-26, 10:21:04,VALID,1004.39,VALID,0,VALID,76.1362,VALID,465.742,VALID,26.3693,VALID,163,VALID,1.01367,
2012-07-26, 10:22:04,VALID,1004.38,VALID,0,VALID,68.904,VALID,476.094,VALID,26.4667,VALID,201,VALID,0.597656,
2012-07-26, 10:23:04,VALID,1004.38,VALID,0,VALID,70.1933,VALID,474.219,VALID,26.5661,VALID,190,VALID,0.728516,
2012-07-26, 10:24:04,VALID,1004.36,VALID,0,VALID,71.2461,VALID,478.457,VALID,26.6225,VALID,174,VALID,0.589063,
2012-07-26, 10:25:04,VALID,1004.33,VALID,0,VALID,68.782,VALID,476.257,VALID,26.7004,VALID,230,VALID,1.17266,
2012-07-26, 10:26:04,VALID,1004.32,VALID,0,VALID,68.7362,VALID,483.185,VALID,26.7783,VALID,193,VALID,0.692969,
2012-07-26, 10:27:04,VALID,1004.28,VALID,0,VALID,66.8977,VALID,497.367,VALID,26.8368,VALID,233,VALID,0.819531,
2012-07-26, 10:28:04,VALID,1004.28,VALID,0,VALID,67.1799,VALID,516.685,VALID,26.9752,VALID,208,VALID,0.8375,
2012-07-26, 10:29:04,VALID,1004.24,VALID,0,VALID,65.5321,VALID,550.185,VALID,26.9926,VALID,259,VALID,0.841797,
2012-07-26, 10:30:04,VALID,1004.22,VALID,0,VALID,66.1729,VALID,572.193,VALID,27.0121,VALID,184,VALID,1.26016,
2012-07-26, 10:31:04,VALID,1004.21,VALID,0,VALID,68.988,VALID,633.243,VALID,27.0706,VALID,179,VALID,0.734375,
2012-07-26, 10:32:04,VALID,1004.18,VALID,0,VALID,71.9098,VALID,590.858,VALID,27.1875,VALID,218,VALID,0.844141,
2012-07-26, 10:33:04,VALID,1004.17,VALID,0,VALID,68.4997,VALID,534.291,VALID,27.2654,VALID,186,VALID,1.05273,
2012-07-26, 10:34:04,VALID,1004.15,VALID,0,VALID,68.2251,VALID,555.157,VALID,27.3044,VALID,193,VALID,1.38203,
2012-07-26, 10:35:04,VALID,1004.12,VALID,0,VALID,64.9523,VALID,592.407,VALID,27.2675,VALID,171,VALID,1.2375,
2012-07-26, 10:36:04,VALID,1004.11,VALID,0,VALID,70.9791,VALID,559.314,VALID,27.2849,VALID,198,VALID,0.622266,
2012-07-26, 10:37:04,VALID,1004.06,VALID,0,VALID,63.808,VALID,509.594,VALID,27.3259,VALID,190,VALID,0.895312,
2012-07-26, 10:38:04,VALID,1004.07,VALID,0,VALID,65.7228,VALID,502.665,VALID,27.3433,VALID,210,VALID,0.908594,
2012-07-26, 10:39:04,VALID,1004.03,VALID,0,VALID,65.6618,VALID,479.354,VALID,27.3649,VALID,192,VALID,1.45898,
2012-07-26, 10:40:04,VALID,1004,VALID,0,VALID,64.2199,VALID,468.269,VALID,27.3454,VALID,179,VALID,1.11016,
2012-07-26, 10:41:04,VALID,1004.01,VALID,0,VALID,63.5333,VALID,457.265,VALID,27.3238,VALID,191,VALID,1.41289,
2012-07-26, 10:42:04,VALID,1004.01,VALID,0,VALID,66.3713,VALID,456.694,VALID,27.3064,VALID,191,VALID,1.24023,
2012-07-26, 10:43:04,VALID,1003.99,VALID,0,VALID,66.4018,VALID,452.537,VALID,27.2869,VALID,197,VALID,0.825,
2012-07-26, 10:44:04,VALID,1003.95,VALID,0,VALID,65.4405,VALID,455.961,VALID,27.3259,VALID,204,VALID,0.896875,
2012-07-26, 10:45:04,VALID,1003.93,VALID,0,VALID,62.0991,VALID,457.51,VALID,27.3259,VALID,199,VALID,1.43125,
2012-07-26, 10:46:04,VALID,1003.94,VALID,0,VALID,64.4183,VALID,461.096,VALID,27.3064,VALID,202,VALID,0.930078,
2012-07-26, 10:47:04,VALID,1003.9,VALID,0,VALID,64.9218,VALID,465.253,VALID,27.328,VALID,211,VALID,0.739062,
2012-07-26, 10:48:04,VALID,1003.9,VALID,0,VALID,64.5327,VALID,463.541,VALID,27.3649,VALID,217,VALID,0.994531,
2012-07-26, 10:49:04,VALID,1003.89,VALID,0,VALID,63.1061,VALID,465.497,VALID,27.3844,VALID,197,VALID,1.38008,
2012-07-26, 10:50:04,VALID,1003.89,VALID,0,VALID,66.7298,VALID,469.573,VALID,27.4039,VALID,194,VALID,0.580078,
2012-07-26, 10:51:04,VALID,1003.87,VALID,0,VALID,65.9288,VALID,474.382,VALID,27.4428,VALID,205,VALID,0.883203,
2012-07-26, 10:52:04,VALID,1003.89,VALID,0,VALID,65.0057,VALID,486.119,VALID,27.5403,VALID,192,VALID,0.700391,
2012-07-26, 10:53:04,VALID,1003.89,VALID,0,VALID,65.616,VALID,487.016,VALID,27.6377,VALID,192,VALID,0.221484,
2012-07-26, 10:54:04,VALID,1003.89,VALID,0,VALID,63.8461,VALID,472.833,VALID,27.7351,VALID,157,VALID,0.751953,
2012-07-26, 10:55:04,VALID,1003.89,VALID,0,VALID,60.9471,VALID,461.259,VALID,27.7567,VALID,242,VALID,0.919531,
2012-07-26, 10:56:04,VALID,1003.83,VALID,0,VALID,60.3292,VALID,447.158,VALID,27.7936,VALID,194,VALID,1.26523,
2012-07-26, 10:57:04,VALID,1003.85,VALID,0,VALID,61.0539,VALID,436.969,VALID,27.6962,VALID,171,VALID,0.641797,
2012-07-26, 10:58:04,VALID,1003.82,VALID,0,VALID,59.3603,VALID,430.775,VALID,27.6551,VALID,231,VALID,0.962891,
2012-07-26, 10:59:04,VALID,1003.8,VALID,0,VALID,60.6801,VALID,424.661,VALID,27.6572,VALID,208,VALID,0.445703,
2012-07-26, 11:00:04,VALID,1003.83,VALID,0,VALID,61.6185,VALID,418.141,VALID,27.7157,VALID,207,VALID,0.750391,
2012-07-26, 11:01:04,VALID,1003.76,VALID,0,VALID,60.9471,VALID,412.598,VALID,27.6962,VALID,176,VALID,0.877344,
2012-07-26, 11:02:04,VALID,1003.77,VALID,0,VALID,61.5117,VALID,408.604,VALID,27.6962,VALID,174,VALID,0.3,
2012-07-26, 11:03:04,VALID,1003.74,VALID,0,VALID,61.2828,VALID,406.729,VALID,27.7915,VALID,237,VALID,0.423438,
2012-07-26, 11:04:04,VALID,1003.72,VALID,0,VALID,61.1989,VALID,406.403,VALID,27.8716,VALID,178,VALID,0.637891,
2012-07-26, 11:05:04,VALID,1003.71,VALID,0,VALID,62.328,VALID,407.219,VALID,27.8716,VALID,213,VALID,0.495313,
2012-07-26, 11:06:04,VALID,1003.71,VALID,0,VALID,58.5669,VALID,408.115,VALID,27.8911,VALID,226,VALID,1.19961,
2012-07-26, 11:07:04,VALID,1003.71,VALID,0,VALID,58.8797,VALID,408.767,VALID,27.7567,VALID,180,VALID,1.20156,
2012-07-26, 11:08:04,VALID,1003.71,VALID,0,VALID,57.4912,VALID,410.071,VALID,27.6398,VALID,193,VALID,1.5707,
2012-07-26, 11:09:04,VALID,1003.69,VALID,0,VALID,61.4964,VALID,410.968,VALID,27.5792,VALID,180,VALID,0.651172,
2012-07-26, 11:10:04,VALID,1003.69,VALID,0,VALID,60.1232,VALID,410.153,VALID,27.5382,VALID,186,VALID,1.14453,
2012-07-26, 11:11:04,VALID,1003.66,VALID,0,VALID,59.0246,VALID,409.99,VALID,27.5598,VALID,233,VALID,1.1918,
2012-07-26, 11:12:04,VALID,1003.66,VALID,0,VALID,60.4741,VALID,408.36,VALID,27.5792,VALID,209,VALID,0.959375,
2012-07-26, 11:13:04,VALID,1003.67,VALID,0,VALID,59.0552,VALID,407.056,VALID,27.5208,VALID,148,VALID,0.660156,
2012-07-26, 11:14:04,VALID,1003.64,VALID,0,VALID,59.0323,VALID,406.729,VALID,27.5403,VALID,203,VALID,1.41289,
2012-07-26, 11:15:04,VALID,1003.64,VALID,0,VALID,64.609,VALID,407.056,VALID,27.5403,VALID,190,VALID,0.836328,
2012-07-26, 11:16:04,VALID,1003.58,VALID,0,VALID,61.9084,VALID,407.3,VALID,27.4818,VALID,154,VALID,1.10703,
2012-07-26, 11:17:04,VALID,1003.6,VALID,0,VALID,61.9236,VALID,407.056,VALID,27.4428,VALID,162,VALID,0.787891,
2012-07-26, 11:18:04,VALID,1003.58,VALID,0,VALID,63.2739,VALID,406.485,VALID,27.5034,VALID,166,VALID,0.415625,
2012-07-26, 11:19:04,VALID,1003.55,VALID,0,VALID,61.7634,VALID,405.914,VALID,27.5813,VALID,161,VALID,0.725391,
2012-07-26, 11:20:04,VALID,1003.56,VALID,0,VALID,59.8867,VALID,405.262,VALID,27.5987,VALID,210,VALID,0.624219,
2012-07-26, 11:21:04,VALID,1003.53,VALID,0,VALID,58.3762,VALID,406.322,VALID,27.6788,VALID,200,VALID,0.651172,
2012-07-26, 11:22:04,VALID,1003.5,VALID,0,VALID,62.2135,VALID,410.56,VALID,27.6962,VALID,263,VALID,0.857031,
2012-07-26, 11:23:04,VALID,1003.47,VALID,0,VALID,61.6795,VALID,416.511,VALID,27.7351,VALID,205,VALID,1.37344,
2012-07-26, 11:24:04,VALID,1003.49,VALID,0,VALID,59.8181,VALID,424.987,VALID,27.6983,VALID,170,VALID,0.93125,
2012-07-26, 11:25:04,VALID,1003.42,VALID,0,VALID,58.7653,VALID,436.073,VALID,27.6182,VALID,146,VALID,1.28555,
2012-07-26, 11:26:04,VALID,1003.46,VALID,0,VALID,61.0921,VALID,446.832,VALID,27.6398,VALID,156,VALID,1.24414,
2012-07-26, 11:27:04,VALID,1003.46,VALID,0,VALID,63.0146,VALID,455.879,VALID,27.6182,VALID,186,VALID,1.0668,
2012-07-26, 11:28:04,VALID,1003.4,VALID,0,VALID,61.4659,VALID,463.949,VALID,27.6788,VALID,172,VALID,1.12539,
2012-07-26, 11:29:04,VALID,1003.43,VALID,0,VALID,59.551,VALID,470.469,VALID,27.6962,VALID,187,VALID,1.02422,
2012-07-26, 11:30:04,VALID,1003.42,VALID,0,VALID,60.0317,VALID,466.802,VALID,27.7372,VALID,201,VALID,0.9375,
2012-07-26, 11:31:04,VALID,1003.38,VALID,0,VALID,56.9801,VALID,463.541,VALID,27.6962,VALID,192,VALID,0.959375,
2012-07-26, 11:32:04,VALID,1003.39,VALID,0,VALID,58.0024,VALID,442.267,VALID,27.6983,VALID,174,VALID,0.673437,
2012-07-26, 11:33:04,VALID,1003.35,VALID,0,VALID,59.4213,VALID,423.113,VALID,27.7372,VALID,205,VALID,0.917578,
2012-07-26, 11:34:04,VALID,1003.33,VALID,0,VALID,62.2593,VALID,402.491,VALID,27.7741,VALID,226,VALID,0.859766,
2012-07-26, 11:35:04,VALID,1003.32,VALID,0,VALID,60.8251,VALID,385.211,VALID,27.8737,VALID,208,VALID,1.10156,
2012-07-26, 11:36:04,VALID,1003.34,VALID,0,VALID,61.0005,VALID,370.621,VALID,27.8542,VALID,241,VALID,1.00664,
2012-07-26, 11:37:04,VALID,1003.34,VALID,0,VALID,62.2059,VALID,358.965,VALID,27.8347,VALID,229,VALID,1.1793,
2012-07-26, 11:38:04,VALID,1003.36,VALID,0,VALID,62.2517,VALID,350.896,VALID,27.7546,VALID,193,VALID,0.875781,
2012-07-26, 11:39:04,VALID,1003.36,VALID,0,VALID,62.2898,VALID,345.435,VALID,27.7567,VALID,224,VALID,0.964453,
2012-07-26, 11:40:04,VALID,1003.36,VALID,0,VALID,61.0921,VALID,341.522,VALID,27.7567,VALID,228,VALID,1.35977,
2012-07-26, 11:41:04,VALID,1003.33,VALID,0,VALID,62.0304,VALID,337.447,VALID,27.7157,VALID,219,VALID,0.734766,
2012-07-26, 11:42:04,VALID,1003.34,VALID,0,VALID,61.9313,VALID,331.415,VALID,27.7178,VALID,187,VALID,0.735937,
2012-07-26, 11:43:04,VALID,1003.32,VALID,0,VALID,64.0216,VALID,322.531,VALID,27.7372,VALID,189,VALID,0.825,
2012-07-26, 11:44:04,VALID,1003.36,VALID,0,VALID,64.0139,VALID,310.386,VALID,27.7178,VALID,108,VALID,0.398438,
2012-07-26, 11:45:04,VALID,1003.35,VALID,0,VALID,62.0609,VALID,295.551,VALID,27.7004,VALID,216,VALID,0.599609,
2012-07-26, 11:46:04,VALID,1003.34,VALID,0,VALID,64.5022,VALID,279.005,VALID,27.6788,VALID,219,VALID,1.48164,
2012-07-26, 11:47:04,VALID,1003.35,VALID,0,VALID,64.7234,VALID,263.681,VALID,27.6203,VALID,225,VALID,1.05898,
2012-07-26, 11:48:04,VALID,1003.32,VALID,0,VALID,64.2581,VALID,250.395,VALID,27.5813,VALID,244,VALID,0.567969,
2012-07-26, 11:49:04,VALID,1003.33,VALID,0,VALID,66.8443,VALID,239.555,VALID,27.6008,VALID,213,VALID,0.430859,
2012-07-26, 11:50:04,VALID,1003.31,VALID,0,VALID,66.0814,VALID,231.159,VALID,27.6008,VALID,194,VALID,1.25781,
2012-07-26, 11:51:04,VALID,1003.29,VALID,0,VALID,67.0197,VALID,224.883,VALID,27.5208,VALID,177,VALID,0.619531,
2012-07-26, 11:52:04,VALID,1003.27,VALID,0,VALID,64.2809,VALID,220.4,VALID,27.5424,VALID,212,VALID,0.754687,
2012-07-26, 11:53:04,VALID,1003.29,VALID,0,VALID,65.288,VALID,217.547,VALID,27.5229,VALID,189,VALID,1.05117,
2012-07-26, 11:54:04,VALID,1003.26,VALID,0,VALID,65.9135,VALID,216.243,VALID,27.4839,VALID,195,VALID,0.514063,
2012-07-26, 11:55:04,VALID,1003.23,VALID,0,VALID,65.1049,VALID,216.162,VALID,27.4254,VALID,206,VALID,1.03516,
2012-07-26, 11:56:04,VALID,1003.23,VALID,0,VALID,65.6465,VALID,217.221,VALID,27.4039,VALID,206,VALID,1.39453,
2012-07-26, 11:57:04,VALID,1003.23,VALID,0,VALID,68.637,VALID,219.014,VALID,27.4059,VALID,191,VALID,0.278125,
2012-07-26, 11:58:04,VALID,1003.24,VALID,0,VALID,66.0508,VALID,221.541,VALID,27.4059,VALID,194,VALID,1.36055,
2012-07-26, 11:59:04,VALID,1003.23,VALID,0,VALID,66.5696,VALID,224.313,VALID,27.3475,VALID,210,VALID,0.854688,
2012-07-26, 12:00:04,VALID,1003.22,VALID,0,VALID,67.569,VALID,227.247,VALID,27.289,VALID,187,VALID,1.50391,
2012-07-26, 12:01:04,VALID,1003.24,VALID,0,VALID,67.6148,VALID,230.344,VALID,27.2521,VALID,167,VALID,0.792188,
2012-07-26, 12:02:04,VALID,1003.24,VALID,0,VALID,67.9733,VALID,233.768,VALID,27.25,VALID,186,VALID,0.849609,
2012-07-26, 12:03:04,VALID,1003.23,VALID,0,VALID,68.0496,VALID,237.598,VALID,27.209,VALID,176,VALID,0.58125,
2012-07-26, 12:04:04,VALID,1003.26,VALID,0,VALID,66.1195,VALID,241.837,VALID,27.2521,VALID,175,VALID,0.719141,
2012-07-26, 12:05:04,VALID,1003.23,VALID,0,VALID,66.6535,VALID,247.054,VALID,27.2285,VALID,202,VALID,0.783203,
2012-07-26, 12:06:04,VALID,1003.26,VALID,0,VALID,68.6218,VALID,254.308,VALID,27.2695,VALID,166,VALID,0.876172,
2012-07-26, 12:07:04,VALID,1003.24,VALID,0,VALID,67.3859,VALID,263.681,VALID,27.3085,VALID,170,VALID,1.33711,
2012-07-26, 12:08:04,VALID,1003.25,VALID,0,VALID,69.4076,VALID,277.945,VALID,27.289,VALID,184,VALID,0.845312,
2012-07-26, 12:09:04,VALID,1003.22,VALID,0,VALID,67.4927,VALID,294.41,VALID,27.3085,VALID,183,VALID,0.563281,
2012-07-26, 12:10:04,VALID,1003.22,VALID,0,VALID,66.4628,VALID,315.439,VALID,27.3085,VALID,159,VALID,1.75703,
2012-07-26, 12:11:04,VALID,1003.23,VALID,0,VALID,66.356,VALID,348.858,VALID,27.289,VALID,171,VALID,0.675391,
2012-07-26, 12:12:04,VALID,1003.18,VALID,0,VALID,65.7609,VALID,383.092,VALID,27.3475,VALID,210,VALID,0.799219,
2012-07-26, 12:13:04,VALID,1003.18,VALID,0,VALID,66.5315,VALID,410.234,VALID,27.4059,VALID,217,VALID,0.623828,
2012-07-26, 12:14:04,VALID,1003.16,VALID,0,VALID,70.3535,VALID,429.878,VALID,27.4839,VALID,173,VALID,0.608203,
2012-07-26, 12:15:04,VALID,1003.13,VALID,0,VALID,66.2263,VALID,447.321,VALID,27.5229,VALID,164,VALID,1.10508,
2012-07-26, 12:16:04,VALID,1003.1,VALID,0,VALID,66.089,VALID,500.22,VALID,27.5013,VALID,163,VALID,1.12227,
2012-07-26, 12:17:04,VALID,1003.12,VALID,0,VALID,68.103,VALID,470.795,VALID,27.5987,VALID,178,VALID,0.58125,
2012-07-26, 12:18:04,VALID,1003.13,VALID,0,VALID,68.9498,VALID,493.536,VALID,27.7372,VALID,223,VALID,1.08867,
2012-07-26, 12:19:04,VALID,1003.15,VALID,0,VALID,66.1882,VALID,504.133,VALID,27.8152,VALID,212,VALID,0.859766,
2012-07-26, 12:20:04,VALID,1003.14,VALID,0,VALID,66.768,VALID,558.825,VALID,27.8542,VALID,215,VALID,1.15937,
2012-07-26, 12:21:04,VALID,1003.13,VALID,0,VALID,63.0527,VALID,532.905,VALID,27.8131,VALID,195,VALID,1.65352,
2012-07-26, 12:22:04,VALID,1003.14,VALID,0,VALID,65.2117,VALID,560.211,VALID,27.7957,VALID,184,VALID,1.28008,
2012-07-26, 12:23:04,VALID,1003.14,VALID,0,VALID,66.0508,VALID,537.714,VALID,27.8737,VALID,211,VALID,0.916797,
2012-07-26, 12:24:04,VALID,1003.18,VALID,0,VALID,64.6624,VALID,493.944,VALID,27.9495,VALID,173,VALID,0.802344,
2012-07-26, 12:25:04,VALID,1003.15,VALID,0,VALID,67.4774,VALID,489.869,VALID,28.0491,VALID,163,VALID,1.18984,
2012-07-26, 12:26:04,VALID,1003.17,VALID,0,VALID,66.2187,VALID,514.729,VALID,28.1076,VALID,170,VALID,1.38008,
2012-07-26, 12:27:04,VALID,1003.14,VALID,0,VALID,67.3325,VALID,517.011,VALID,28.244,VALID,173,VALID,0.657031,
2012-07-26, 12:28:04,VALID,1003.14,VALID,0,VALID,66.6917,VALID,637.318,VALID,28.2245,VALID,164,VALID,1.56523,
2012-07-26, 12:29:04,VALID,1003.16,VALID,0,VALID,61.4125,VALID,746.377,VALID,28.1271,VALID,160,VALID,1.70352,
2012-07-26, 12:30:04,VALID,1003.13,VALID,0,VALID,62.984,VALID,878.992,VALID,28.1466,VALID,136,VALID,1.63125,
2012-07-26, 12:31:04,VALID,1003.11,VALID,0,VALID,63.4799,VALID,1004.84,VALID,28.2419,VALID,195,VALID,1.92305,
2012-07-26, 12:32:04,VALID,1003.11,VALID,0,VALID,61.0158,VALID,1122.87,VALID,28.4,VALID,178,VALID,1.46445,
2012-07-26, 12:33:04,VALID,1003.09,VALID,0,VALID,59.1849,VALID,984.546,VALID,28.4779,VALID,189,VALID,1.78008,
2012-07-26, 12:34:04,VALID,1003.04,VALID,0,VALID,58.9255,VALID,947.949,VALID,28.4389,VALID,211,VALID,1.26719,
2012-07-26, 12:35:04,VALID,1003.02,VALID,0,VALID,60.9929,VALID,891.463,VALID,28.4,VALID,192,VALID,1.98203,
2012-07-26, 12:36:04,VALID,1003.01,VALID,0,VALID,60.6572,VALID,1064.75,VALID,28.4194,VALID,202,VALID,1.25312,
2012-07-26, 12:37:04,VALID,1003,VALID,0,VALID,60.7793,VALID,1037.12,VALID,28.5537,VALID,206,VALID,2.07695,
2012-07-26, 12:38:04,VALID,1002.98,VALID,0,VALID,64.136,VALID,1027.99,VALID,28.6707,VALID,215,VALID,1.0543,
2012-07-26, 12:39:04,VALID,1003,VALID,0,VALID,61.8397,VALID,996.528,VALID,28.8267,VALID,177,VALID,1.27695,
2012-07-26, 12:40:04,VALID,1002.97,VALID,0,VALID,61.1607,VALID,897.006,VALID,28.9263,VALID,187,VALID,0.915234,
2012-07-26, 12:41:04,VALID,1003.03,VALID,0,VALID,58.8034,VALID,813.54,VALID,28.9436,VALID,203,VALID,2.06953,
2012-07-26, 12:42:04,VALID,1002.97,VALID,0,VALID,61.176,VALID,782.975,VALID,28.8873,VALID,190,VALID,1.22266,
2012-07-26, 12:43:04,VALID,1002.95,VALID,0,VALID,61.8778,VALID,616.289,VALID,28.9653,VALID,182,VALID,0.399609,
2012-07-26, 12:44:04,VALID,1002.95,VALID,0,VALID,62.45,VALID,598.52,VALID,29.1191,VALID,265,VALID,0.426953,
2012-07-26, 12:45:04,VALID,1002.96,VALID,0,VALID,64.815,VALID,686.55,VALID,29.1798,VALID,192,VALID,1.37539,
2012-07-26, 12:46:04,VALID,1002.91,VALID,0,VALID,61.71,VALID,817.29,VALID,29.1798,VALID,191,VALID,0.292188,
2012-07-26, 12:47:04,VALID,1002.86,VALID,0,VALID,60.1537,VALID,758.359,VALID,29.2383,VALID,207,VALID,1.11484,
2012-07-26, 12:48:04,VALID,1002.86,VALID,0,VALID,63.068,VALID,1074.12,VALID,29.3163,VALID,243,VALID,0.576172,
2012-07-26, 12:49:04,VALID,1002.87,VALID,0,VALID,62.9535,VALID,1010.71,VALID,29.4895,VALID,185,VALID,0.692187,
2012-07-26, 12:50:04,VALID,1002.84,VALID,0,VALID,59.5434,VALID,880.867,VALID,29.6845,VALID,208,VALID,0.858594,
2012-07-26, 12:51:04,VALID,1002.85,VALID,0,VALID,57.8956,VALID,865.054,VALID,29.8428,VALID,220,VALID,1.65117,
2012-07-26, 12:52:04,VALID,1002.81,VALID,0,VALID,58.5974,VALID,771.971,VALID,29.9013,VALID,302,VALID,0.8,
2012-07-26, 12:53:04,VALID,1002.84,VALID,0,VALID,57.8879,VALID,850.709,VALID,29.7843,VALID,240,VALID,0.926562,
2012-07-26, 12:54:04,VALID,1002.82,VALID,0,VALID,57.4989,VALID,894.968,VALID,29.5113,VALID,189,VALID,0.569922,
2012-07-26, 12:55:04,VALID,1002.83,VALID,0,VALID,59.2459,VALID,795.527,VALID,29.4333,VALID,218,VALID,1.91602,
2012-07-26, 12:56:04,VALID,1002.79,VALID,0,VALID,60.3826,VALID,787.376,VALID,29.3163,VALID,209,VALID,1.61406,
2012-07-26, 12:57:04,VALID,1002.79,VALID,0,VALID,58.8339,VALID,910.129,VALID,29.0433,VALID,215,VALID,2.08672,
2012-07-26, 12:58:04,VALID,1002.78,VALID,0,VALID,60.5199,VALID,758.44,VALID,28.948,VALID,193,VALID,0.146875,
2012-07-26, 12:59:04,VALID,1002.77,VALID,0,VALID,60.2148,VALID,622.647,VALID,29.104,VALID,210,VALID,1.24805,
2012-07-26, 13:00:04,VALID,1002.76,VALID,0,VALID,59.223,VALID,586.049,VALID,29.1993,VALID,255,VALID,1.24805,
2012-07-26, 13:01:04,VALID,1002.77,VALID,0,VALID,58.544,VALID,539.1,VALID,29.3358,VALID,265,VALID,0.748828,
2012-07-26, 13:02:04,VALID,1002.73,VALID,0,VALID,58.8797,VALID,566.487,VALID,29.3748,VALID,235,VALID,1.59219,
2012-07-26, 13:03:04,VALID,1002.74,VALID,0,VALID,60.2605,VALID,482.044,VALID,29.1993,VALID,224,VALID,1.20469,
2012-07-26, 13:04:04,VALID,1002.71,VALID,0,VALID,62.5263,VALID,471.366,VALID,29.0455,VALID,214,VALID,1.01914,
2012-07-26, 13:05:04,VALID,1002.75,VALID,0,VALID,60.764,VALID,470.795,VALID,28.8678,VALID,210,VALID,2.2707,
2012-07-26, 13:06:04,VALID,1002.76,VALID,0,VALID,61.7024,VALID,544.806,VALID,28.7509,VALID,234,VALID,0.878516,
2012-07-26, 13:07:04,VALID,1002.75,VALID,0,VALID,62.2974,VALID,497.041,VALID,28.753,VALID,259,VALID,0.951172,
2012-07-26, 13:08:04,VALID,1002.72,VALID,0,VALID,63.0374,VALID,519.212,VALID,28.753,VALID,197,VALID,1.19102,
2012-07-26, 13:09:04,VALID,1002.72,VALID,0,VALID,65.349,VALID,537.307,VALID,28.6556,VALID,179,VALID,1.73164,
2012-07-26, 13:10:04,VALID,1002.75,VALID,0,VALID,62.5263,VALID,503.97,VALID,28.5949,VALID,255,VALID,1.25508,